Regional Weather Roundup
Issued by NWS

Home | Current Version | Previous Version | Text Only | Print | Product List | Glossary Off
Versions: 1 2 3 4 5 6 7 8 9 10 11 12 13 14 15 16 17 18 19 20 21 22 23 24 25 26 27 28 29 30 31 32 33 34 35 36 37 38 39 40 41 42 43 44 45 46 47 48 49 50

000
ASUS43 KOAX 200710
RWRNE

WEATHER ROUNDUP FOR NEBRASKA
NATIONAL WEATHER SERVICE OMAHA NE
100 AM CST SAT JAN 20 2018

NOTES: SATELLITE DATA IS BEING USED TO AUGMENT CLOUD COVER ABOVE
       12000 FEET.
       "FAIR" INDICATES FEW OR NO CLOUDS BELOW 12,000 FEET WITH NO
       SIGNIFICANT WEATHER AND/OR OBSTRUCTIONS TO VISIBILITY.


NEZ001>004-019>022-054>056-200800-
NEBRASKA PANHANDLE

CITY           SKY/WX    TMP DP  RH WIND       PRES   REMARKS
SCOTTSBLUFF    CLOUDY    33  30  88 CALM      29.76S
ALLIANCE       CLOUDY    29  28  96 W3        29.77R
CHADRON        PTCLDY    25  23  92 N5        29.77S WCI  19
GORDON         FAIR      24  22  91 CALM      29.77F
KIMBALL        CLOUDY    38  23  54 SE3       29.75F
SIDNEY         CLOUDY    33  25  72 SE7       29.76F WCI  27
$$

NEZ057>060-069>072-079>082-200800-
SOUTHWEST NEBRASKA

CITY           SKY/WX    TMP DP  RH WIND       PRES   REMARKS
NORTH PLATTE   CLOUDY    33  28  81 S3        29.77S
IMPERIAL       CLOUDY    30  28  92 NE5       29.75F WCI  25
LEXINGTON      MOCLDY    32  28  88 NW6       29.76S WCI  26
MCCOOK         MOCLDY    33  28  81 NE3       29.73S
OGALLALA       CLOUDY    32  30  92 CALM      29.76F
$$

NEZ005>010-023>029-035>040-094-200800-
NORTH CENTRAL NEBRASKA

CITY           SKY/WX    TMP DP  RH WIND       PRES   REMARKS
VALENTINE      CLEAR     29  27  92 W8        29.81R WCI  21
AINSWORTH      PTCLDY    29  28  97 W6        29.79R WCI  23
BROKEN BOW     CLOUDY    37  30  75 N7        29.76F WCI  32
O`NEILL        CLOUDY    32  31  95 NW6       29.79R WCI  26
ORD            CLOUDY    32  30  92 NW3       29.77S
THEDFORD       MOCLDY    31  30  94 CALM      29.78F
$$

NEZ041-046>049-061>064-073>077-083>087-200800-
SOUTH CENTRAL NEBRASKA

CITY           SKY/WX    TMP DP  RH WIND       PRES   REMARKS
GRAND ISLAND   CLOUDY    32  31  96 N5        29.77R WCI  27
AURORA         CLOUDY    31  29  91 CALM      29.78R
HASTINGS       CLOUDY    30  26  85 NE6       29.75F WCI  24
HEBRON         CLOUDY    28  24  88 CALM      29.76F
HOLDREGE       CLOUDY    32  29  88 N7        29.74S WCI  25
KEARNEY        CLOUDY    34  30  85 N7        29.76R WCI  28
YORK           CLOUDY    28  27  93 CALM      29.77R
$$

NEZ011>018-030>034-042>045-200800-
NORTHEAST NEBRASKA

CITY           SKY/WX    TMP DP  RH WIND       PRES   REMARKS
NORFOLK        CLOUDY    32  29  88 W5        29.76S WCI  27
ALBION         MOCLDY    32  30  94 N3        29.77F
BLAIR          CLOUDY    35  28  75 CALM      29.76R
COLUMBUS       CLOUDY    24  22  91 NW6       29.78R WCI  17
FREMONT        CLOUDY    28  25  87 W6        29.77S WCI  21
TEKAMAH        CLOUDY    29  25  85 CALM      29.77S
WAYNE          CLOUDY    28  27  96 CALM      29.77S
$$

NEZ050>053-065>068-078-088>093-200800-
SOUTHEAST NEBRASKA

CITY           SKY/WX    TMP DP  RH WIND       PRES   REMARKS
LINCOLN        CLOUDY    23  20  88 N5        29.78F WCI  17
OMAHA EPPLEY   CLOUDY    33  27  78 S5        29.77F WCI  29
BEATRICE       CLOUDY    31  27  85 CALM      29.77S
FALLS CITY     CLOUDY    32  25  75 CALM      29.79F
NEBRASKA CITY  PTCLDY    32  29  89 S9        29.78S WCI  24
PLATTSMOUTH    CLOUDY    34  28  79 S5        29.77S WCI  30
$$

NEZ044-045-051>053-067-200800-
OMAHA AREA

CITY           SKY/WX    TMP DP  RH WIND       PRES   REMARKS
OMAHA EPPLEY   CLOUDY    33  27  78 S5        29.77F WCI  29
BLAIR          CLOUDY    35  28  75 CALM      29.76R
FREMONT        CLOUDY    28  25  87 W6        29.77S WCI  21
MILLARD        CLOUDY    28  26  89 CALM      29.78R
OFFUTT AFB     CLOUDY    26  24  92 CALM      29.77S
PLATTSMOUTH    CLOUDY    34  28  79 S5        29.77S WCI  30
WAHOO          FAIR      31  26  84 CALM      29.77S
$$



USA.gov is the U.S. government's official web portal to all federal, state and local government web resources and services.